M I D A S
Marine Information and Data Acquisition System
Tripno 613 of the Zeeleeuw from 2003-12-09 07:40:17 to 2003-12-09 16:15:26
Back to CruiseResearch ActivitiesStationsMapUnderway DataData graphs

EquipmentUnitsComment
TimeDGPSUTC
LatitudeDGPSDM.mWGS84
LongitudeDGPSDM.mWGS84
HeadingGyrodeg 
SOGDGPSknotsSpeed over ground
COGDGPSdegCourse over ground
DepthEcho soundermeters200 kHz
Missing or incorrect values are displayed as -999
Navigation data collected by the RV Zeeleeuw from 2003-12-09 07:40:17 to 2003-12-09 16:15:26
                                                                                    Next 1000 lines
Time Latitude Longitude Heading SOG COG Depth
2003-12-09 07:40:24 51°13.534 2°56.235 33.3 1 214 -999
2003-12-09 07:40:28 51°13.534 2°56.234 30.7 0.4 240 -999
2003-12-09 07:40:36 51°13.534 2°56.233 26.8 0.2 280 4.8
2003-12-09 07:40:40 51°13.534 2°56.232 22.7 0.5 346 -999
2003-12-09 07:40:44 51°13.535 2°56.232 18.2 0.7 356 8.8
2003-12-09 07:40:48 51°13.536 2°56.232 14.3 1 355 8.5
2003-12-09 07:40:53 51°13.538 2°56.232 9.1 1.2 358 7.8
2003-12-09 07:41:00 51°13.54 2°56.232 4.5 1.5 355 4.9
2003-12-09 07:41:04 51°13.542 2°56.232 359.1 1.4 352 7.5
2003-12-09 07:41:09 51°13.544 2°56.232 355.4 1.2 355 5.1
2003-12-09 07:41:14 51°13.545 2°56.232 353 0.7 358 4.9
2003-12-09 07:41:20 51°13.546 2°56.233 350.4 0.4 10 7.3
2003-12-09 07:41:25 51°13.546 2°56.233 348.5 0.2 24 7.5
2003-12-09 07:41:29 51°13.545 2°56.233 347.3 0.2 96 7.3
2003-12-09 07:41:32 51°13.545 2°56.233 346.6 0.4 144 7.3
2003-12-09 07:41:40 51°13.543 2°56.233 346.1 0.6 148 7.6
2003-12-09 07:41:44 51°13.542 2°56.234 345.6 1 153 7.1
2003-12-09 07:41:49 51°13.541 2°56.235 345.2 1.1 157 7.1
2003-12-09 07:41:52 51°13.539 2°56.235 344.9 1.4 158 -999
2003-12-09 07:42:00 51°13.536 2°56.237 344.4 1.6 158 -999
2003-12-09 07:42:04 51°13.535 2°56.239 343.6 1.8 157 -999
2003-12-09 07:42:09 51°13.532 2°56.24 342.8 1.6 157 -999
2003-12-09 07:42:16 51°13.53 2°56.242 342.7 1.5 157 -999
2003-12-09 07:42:20 51°13.528 2°56.242 342.8 1.1 157 -999
2003-12-09 07:42:24 51°13.527 2°56.243 342.4 0.9 156 -999
2003-12-09 07:42:28 51°13.527 2°56.244 341.3 0.5 155 -999
2003-12-09 07:42:35 51°13.526 2°56.244 339.9 0.3 150 -999
2003-12-09 07:42:40 51°13.526 2°56.244 338 0.1 110 -999
2003-12-09 07:42:44 51°13.525 2°56.244 336 0.1 26 -999
2003-12-09 07:42:49 51°13.526 2°56.244 334.5 0.2 5 -999
2003-12-09 07:42:55 51°13.526 2°56.244 333.4 0.2 350 4.9
2003-12-09 07:43:00 51°13.527 2°56.244 332.5 0.3 350 4.9
2003-12-09 07:43:05 51°13.527 2°56.244 331.7 0.5 322 4.9
2003-12-09 07:43:08 51°13.528 2°56.243 330.5 0.9 328 4.8
2003-12-09 07:43:13 51°13.529 2°56.241 327.5 1.3 320 9
2003-12-09 07:43:19 51°13.531 2°56.238 322.2 1.6 317 9.3
2003-12-09 07:43:24 51°13.533 2°56.236 316.8 1.6 313 8.9
2003-12-09 07:43:28 51°13.534 2°56.234 312.8 1.6 311 9
2003-12-09 07:43:35 51°13.536 2°56.23 309.6 1.6 310 8.5
2003-12-09 07:43:37 51°13.537 2°56.229 307.2 1.5 308 4.8
2003-12-09 07:43:45 51°13.539 2°56.225 305.3 1.6 305 8.3
2003-12-09 07:43:49 51°13.54 2°56.222 303.5 1.6 303 7.8
2003-12-09 07:43:53 51°13.541 2°56.22 301.9 1.6 301 8.1
2003-12-09 07:43:59 51°13.542 2°56.216 300.4 1.6 300 7.9
2003-12-09 07:44:04 51°13.543 2°56.213 299.2 1.6 297 8.1
2003-12-09 07:44:09 51°13.544 2°56.21 298 1.6 295 7.9
2003-12-09 07:44:14 51°13.545 2°56.207 296.8 1.6 292 8.1
2003-12-09 07:44:19 51°13.545 2°56.203 295.7 1.7 292 8.6
2003-12-09 07:44:24 51°13.546 2°56.2 294.7 1.7 291 8.7
2003-12-09 07:44:30 51°13.547 2°56.195 293.9 1.7 290 9
2003-12-09 07:44:35 51°13.548 2°56.192 293.4 1.8 290 9.3
2003-12-09 07:44:40 51°13.549 2°56.188 293.2 1.8 291 9.5
2003-12-09 07:44:45 51°13.55 2°56.184 293.1 1.9 291 9.8
2003-12-09 07:44:50 51°13.551 2°56.18 293.1 1.9 293 9.5
2003-12-09 07:44:54 51°13.552 2°56.177 293.3 2 293 9.7
2003-12-09 07:44:59 51°13.553 2°56.172 293.7 2 294 9.5
2003-12-09 07:45:05 51°13.554 2°56.168 294.2 2 295 9.5
2003-12-09 07:45:09 51°13.555 2°56.164 294.7 2 296 9.5
2003-12-09 07:45:14 51°13.556 2°56.16 295.3 2 295 9.4
2003-12-09 07:45:19 51°13.558 2°56.156 295.6 2 295 9.4
2003-12-09 07:45:25 51°13.559 2°56.151 295.8 2 293 9.4
2003-12-09 07:45:28 51°13.56 2°56.149 295.9 2 292 9.4
2003-12-09 07:45:35 51°13.562 2°56.143 295.9 2 292 9.5
2003-12-09 07:45:39 51°13.562 2°56.14 295.7 2 291 9.5
2003-12-09 07:45:44 51°13.563 2°56.136 295.5 2 292 9.5
2003-12-09 07:45:48 51°13.564 2°56.132 295.4 2 291 9.5
2003-12-09 07:45:55 51°13.566 2°56.126 295.4 2.1 292 9.9
2003-12-09 07:45:59 51°13.567 2°56.123 295.4 2.1 292 9.6
2003-12-09 07:46:05 51°13.568 2°56.118 295.7 2.1 292 9.8
2003-12-09 07:46:09 51°13.569 2°56.114 296.1 2.1 292 9.7
2003-12-09 07:46:14 51°13.57 2°56.11 296.6 2.1 293 9.6
2003-12-09 07:46:19 51°13.571 2°56.106 297.1 2.1 293 9.4
2003-12-09 07:46:25 51°13.572 2°56.101 297.6 2.1 293 10
2003-12-09 07:46:28 51°13.573 2°56.098 298.1 2.1 293 9.5
2003-12-09 07:46:35 51°13.575 2°56.093 298.5 2.1 293 9.6
2003-12-09 07:46:39 51°13.576 2°56.089 299 2 294 9.5
2003-12-09 07:46:44 51°13.577 2°56.085 299.3 2 294 9.7
2003-12-09 07:46:49 51°13.578 2°56.082 299.6 1.9 295 9.7
2003-12-09 07:46:55 51°13.579 2°56.077 299.9 1.9 294 9.8
2003-12-09 07:46:59 51°13.58 2°56.074 300.3 1.8 296 9.6
2003-12-09 07:47:05 51°13.581 2°56.07 300.6 1.7 295 9.4
2003-12-09 07:47:08 51°13.582 2°56.068 301 1.6 295 9.4
2003-12-09 07:47:15 51°13.583 2°56.064 301.2 1.5 294 9.5
2003-12-09 07:47:20 51°13.584 2°56.061 301 1.5 294 9.4
2003-12-09 07:47:24 51°13.585 2°56.058 300.5 1.6 295 9.5
2003-12-09 07:47:28 51°13.585 2°56.056 300.3 1.7 294 9.6
2003-12-09 07:47:35 51°13.587 2°56.051 300.4 1.6 297 9.5
2003-12-09 07:47:40 51°13.588 2°56.048 300.7 1.6 295 9.5
2003-12-09 07:47:45 51°13.589 2°56.045 301.2 1.6 299 9.4
2003-12-09 07:47:49 51°13.59 2°56.042 301.7 1.6 297 9.5
2003-12-09 07:47:55 51°13.591 2°56.039 302.1 1.5 300 9.5
2003-12-09 07:47:59 51°13.592 2°56.037 302.8 1.5 300 9.4
2003-12-09 07:48:05 51°13.593 2°56.033 303.3 1.5 301 9.4
2003-12-09 07:48:10 51°13.594 2°56.031 303.8 1.5 300 9.5
2003-12-09 07:48:14 51°13.594 2°56.028 304.4 1.5 302 9.4
2003-12-09 07:48:20 51°13.596 2°56.025 304.8 1.4 301 9.5
2003-12-09 07:48:24 51°13.597 2°56.023 305.2 1.4 302 9.5
2003-12-09 07:48:28 51°13.597 2°56.021 305.5 1.4 302 9.2
2003-12-09 07:48:34 51°13.599 2°56.018 305.9 1.3 305 9.3
2003-12-09 07:48:40 51°13.6 2°56.015 306.3 1.1 305 9.2
2003-12-09 07:48:44 51°13.601 2°56.014 307 1.1 308 9.4
2003-12-09 07:48:50 51°13.602 2°56.012 307.5 1 307 9.3
2003-12-09 07:48:55 51°13.602 2°56.01 308.4 1 309 9.3
2003-12-09 07:48:59 51°13.603 2°56.009 309.1 0.9 309 9.3
2003-12-09 07:49:03 51°13.604 2°56.008 310 0.8 311 9.2
2003-12-09 07:49:08 51°13.604 2°56.007 310.8 0.7 311 9.3
2003-12-09 07:49:13 51°13.605 2°56.006 311.5 0.7 314 9.2
2003-12-09 07:49:19 51°13.606 2°56.004 312.2 0.6 317 9.3
2003-12-09 07:49:24 51°13.606 2°56.004 312.9 0.4 316 9.3
2003-12-09 07:49:28 51°13.607 2°56.003 313.6 0.4 316 9.3
2003-12-09 07:49:35 51°13.607 2°56.002 314.3 0.4 310 9.4
2003-12-09 07:49:39 51°13.607 2°56.002 315.1 0.3 315 9.6
2003-12-09 07:49:45 51°13.607 2°56.001 315.9 0.2 300 9.4
2003-12-09 07:49:48 51°13.607 2°56.001 316.4 0.1 294 9.6
2003-12-09 07:49:54 51°13.607 2°56.001 316.6 0.1 284 9.5
2003-12-09 07:50:00 51°13.607 2°56.001 317 0.1 270 9.6
2003-12-09 07:50:04 51°13.607 2°56.001 317.2 0.1 282 9.5
2003-12-09 07:50:10 51°13.607 2°56 317.5 0.1 284 9.5
2003-12-09 07:50:15 51°13.608 2°56 317.8 0.1 285 9.5
2003-12-09 07:50:20 51°13.608 2°56 318.1 0.1 291 9.6
2003-12-09 07:50:24 51°13.608 2°56 318.5 0.2 287 9.5
2003-12-09 07:50:29 51°13.608 2°55.999 318.8 0.2 293 9.5
2003-12-09 07:50:35 51°13.608 2°55.999 319.1 0.2 294 9.5
2003-12-09 07:50:39 51°13.608 2°55.999 319.3 0.2 294 9.5
2003-12-09 07:50:43 51°13.608 2°55.998 319.6 0.2 296 9.5
2003-12-09 07:50:48 51°13.608 2°55.998 319.7 0.2 293 9.6
2003-12-09 07:50:55 51°13.608 2°55.997 319.9 0.2 291 9.5
2003-12-09 07:50:59 51°13.608 2°55.997 320.1 0.3 290 9.5
2003-12-09 07:51:05 51°13.609 2°55.996 320.5 0.3 286 9.5
2003-12-09 07:51:10 51°13.609 2°55.995 320.8 0.2 276 9.6
2003-12-09 07:51:13 51°13.609 2°55.995 321 0.2 257 9.5
2003-12-09 07:51:20 51°13.609 2°55.995 321.2 0.2 278 9.5
2003-12-09 07:51:25 51°13.609 2°55.994 321.5 0.2 275 9.6
2003-12-09 07:51:30 51°13.609 2°55.994 321.6 0.2 282 9.6
2003-12-09 07:51:35 51°13.609 2°55.993 322.1 0.2 280 9.6
2003-12-09 07:51:39 51°13.609 2°55.993 322.3 0.2 295 9.6
2003-12-09 07:51:45 51°13.609 2°55.993 322.9 0.2 296 9.6
2003-12-09 07:51:48 51°13.609 2°55.992 323.3 0.2 311 9.6
2003-12-09 07:51:54 51°13.61 2°55.992 323.9 0.2 310 9.6
2003-12-09 07:52:00 51°13.61 2°55.991 324.4 0.3 318 9.6
2003-12-09 07:52:05 51°13.61 2°55.991 325 0.3 316 9.6
2003-12-09 07:52:08 51°13.611 2°55.991 325.3 0.4 319 9.6
2003-12-09 07:52:14 51°13.611 2°55.99 325.5 0.5 317 9.6
2003-12-09 07:52:20 51°13.612 2°55.989 325.5 0.5 317 9.6
2003-12-09 07:52:24 51°13.612 2°55.988 325.2 0.6 321 9.6
2003-12-09 07:52:30 51°13.613 2°55.987 325 0.7 317 9.7
2003-12-09 07:52:35 51°13.614 2°55.986 324.4 0.8 315 9.7
2003-12-09 07:52:40 51°13.614 2°55.984 323.5 0.9 314 9.7
2003-12-09 07:52:45 51°13.616 2°55.983 322.3 1 313 9.8
2003-12-09 07:52:48 51°13.616 2°55.982 320.9 1.1 314 9.7
2003-12-09 07:52:55 51°13.618 2°55.979 319.1 1.2 310 9.6
2003-12-09 07:52:58 51°13.619 2°55.978 318 1.3 311 9.7
2003-12-09 07:53:05 51°13.62 2°55.974 317.1 1.4 310 9.7
2003-12-09 07:53:09 51°13.621 2°55.973 316.4 1.4 310 9.8
2003-12-09 07:53:12 51°13.622 2°55.971 315.9 1.5 309 9.8
2003-12-09 07:53:20 51°13.624 2°55.967 315.5 1.6 310 9.7
2003-12-09 07:53:25 51°13.626 2°55.964 315.3 1.7 309 9.5
2003-12-09 07:53:30 51°13.628 2°55.96 314.9 1.8 308 9.8
2003-12-09 07:53:34 51°13.629 2°55.958 314.2 2 309 9.6
2003-12-09 07:53:38 51°13.63 2°55.955 313.9 2.1 309 9.8
2003-12-09 07:53:44 51°13.633 2°55.95 313.5 2.2 308 9.7
2003-12-09 07:53:49 51°13.635 2°55.946 313 2.4 308 9.6
2003-12-09 07:53:55 51°13.637 2°55.941 312.7 2.5 307 9.5
2003-12-09 07:53:58 51°13.638 2°55.938 312 2.6 306 9.5
2003-12-09 07:54:04 51°13.641 2°55.932 311.4 2.7 306 9.5
2003-12-09 07:54:08 51°13.643 2°55.928 310.9 2.8 305 9.5
2003-12-09 07:54:13 51°13.645 2°55.923 310.3 2.9 305 9.6
2003-12-09 07:54:19 51°13.648 2°55.916 310 3 305 9.5
2003-12-09 07:54:24 51°13.651 2°55.911 309.9 3.3 305 9.6
2003-12-09 07:54:28 51°13.653 2°55.905 309.7 3.6 305 9.4
2003-12-09 07:54:35 51°13.658 2°55.896 309.5 4 304 9.4
2003-12-09 07:54:40 51°13.661 2°55.888 309.2 4.1 305 9.3
2003-12-09 07:54:44 51°13.664 2°55.881 309.1 4.5 305 9.3
2003-12-09 07:54:49 51°13.668 2°55.873 309 4.7 305 9.2
2003-12-09 07:54:53 51°13.671 2°55.866 309 5 305 9.2
2003-12-09 07:55:00 51°13.676 2°55.852 309.1 5.1 305 9.1
2003-12-09 07:55:04 51°13.68 2°55.845 309.1 5.4 306 8.9
2003-12-09 07:55:08 51°13.683 2°55.837 309.5 5.5 306 9.1
2003-12-09 07:55:15 51°13.69 2°55.822 309.7 5.7 306 9.3
2003-12-09 07:55:19 51°13.694 2°55.814 309.9 5.8 306 10
2003-12-09 07:55:24 51°13.699 2°55.803 309.9 6.1 306 10.9
2003-12-09 07:55:28 51°13.703 2°55.794 310 6.3 306 11.7
2003-12-09 07:55:32 51°13.707 2°55.785 310.1 6.4 306 11.8
2003-12-09 07:55:40 51°13.716 2°55.766 310.5 6.5 307 11.9
2003-12-09 07:55:44 51°13.721 2°55.757 311.4 6.8 308 11.1
2003-12-09 07:55:49 51°13.726 2°55.745 312.8 6.8 309 10.1
2003-12-09 07:55:53 51°13.731 2°55.736 314.3 7 311 9.5
2003-12-09 07:56:00 51°13.741 2°55.72 316 7 312 9.4
2003-12-09 07:56:04 51°13.746 2°55.711 317.9 7.1 315 9.7
2003-12-09 07:56:08 51°13.752 2°55.703 319.8 7.2 317 9.4
2003-12-09 07:56:12 51°13.758 2°55.694 322.2 7.2 318 9.3
2003-12-09 07:56:20 51°13.771 2°55.678 324.2 7.3 320 9.5
2003-12-09 07:56:24 51°13.777 2°55.67 326.4 7.3 324 9.7
2003-12-09 07:56:28 51°13.784 2°55.663 328.8 7.4 326 9.6
2003-12-09 07:56:34 51°13.794 2°55.653 331.3 7.4 329 9.7
2003-12-09 07:56:40 51°13.805 2°55.643 333.8 7.4 331 9.8
2003-12-09 07:56:45 51°13.814 2°55.635 335.9 7.4 332 9.8
2003-12-09 07:56:48 51°13.82 2°55.631 337.3 7.5 333 9.8
2003-12-09 07:56:54 51°13.832 2°55.622 338.5 7.5 334 9.6
2003-12-09 07:57:00 51°13.844 2°55.613 339.7 7.5 336 9.7
2003-12-09 07:57:04 51°13.851 2°55.608 340.8 7.6 336 9.4
2003-12-09 07:57:10 51°13.863 2°55.6 341.1 7.6 336 9.2
2003-12-09 07:57:15 51°13.873 2°55.593 341.3 7.6 337 9.3
2003-12-09 07:57:20 51°13.883 2°55.587 341.8 7.6 337 9.3
2003-12-09 07:57:24 51°13.89 2°55.581 342.4 7.7 337 9.3
2003-12-09 07:57:30 51°13.902 2°55.574 342.8 7.7 337 9.4
2003-12-09 07:57:32 51°13.906 2°55.571 342.9 7.7 337 9.3
2003-12-09 07:57:40 51°13.922 2°55.56 342.5 7.7 337 9.4
2003-12-09 07:57:45 51°13.932 2°55.553 341.5 7.7 336 9.4
2003-12-09 07:57:48 51°13.938 2°55.549 341.1 7.8 336 9.4
2003-12-09 07:57:52 51°13.946 2°55.544 341.1 7.8 337 9.4
2003-12-09 07:58:00 51°13.961 2°55.533 341.1 7.8 336 9.4
2003-12-09 07:58:04 51°13.969 2°55.527 340.8 7.8 336 9.3
2003-12-09 07:58:10 51°13.981 2°55.519 340.6 7.8 336 9.2
2003-12-09 07:58:12 51°13.985 2°55.516 340.6 7.9 336 9.2
2003-12-09 07:58:20 51°14.001 2°55.505 340.9 7.9 337 9.1
2003-12-09 07:58:25 51°14.011 2°55.498 341.1 7.8 337 9
2003-12-09 07:58:28 51°14.017 2°55.494 341.1 7.8 337 9
2003-12-09 07:58:35 51°14.031 2°55.484 341.1 7.9 337 8.9
2003-12-09 07:58:40 51°14.041 2°55.477 341.1 7.9 337 8.9
2003-12-09 07:58:45 51°14.051 2°55.47 341.2 7.9 336 8.9
2003-12-09 07:58:49 51°14.059 2°55.464 341.1 7.9 336 8.8
2003-12-09 07:58:53 51°14.067 2°55.459 340.5 7.9 335 8.7
2003-12-09 07:58:59 51°14.079 2°55.45 340.4 7.9 335 8.7
2003-12-09 07:59:04 51°14.089 2°55.443 340.4 8.2 335 8.7
2003-12-09 07:59:09 51°14.1 2°55.435 340.5 8.3 335 8.8
2003-12-09 07:59:12 51°14.106 2°55.43 340.5 8.5 335 8.8
2003-12-09 07:59:20 51°14.123 2°55.417 340.5 8.6 335 9.1
2003-12-09 07:59:25 51°14.134 2°55.409 340.4 8.7 334 8.9
2003-12-09 07:59:29 51°14.143 2°55.402 339.6 8.8 334 9.9
2003-12-09 07:59:32 51°14.149 2°55.397 338.9 8.9 333 9.7
2003-12-09 07:59:40 51°14.167 2°55.382 338.3 9 333 9.3
2003-12-09 07:59:45 51°14.178 2°55.373 337.1 9.1 330 9.4
2003-12-09 07:59:49 51°14.187 2°55.364 335.3 9.1 329 9.5
2003-12-09 07:59:53 51°14.195 2°55.355 333.3 9.1 326 9.6
2003-12-09 07:59:59 51°14.207 2°55.341 331 9.2 324 9.6
2003-12-09 08:00:04 51°14.217 2°55.329 328.7 9.2 322 9.6
2003-12-09 08:00:09 51°14.227 2°55.316 326.3 9.2 320 9.5
2003-12-09 08:00:13 51°14.235 2°55.305 323.8 9.2 317 9.7
2003-12-09 08:00:19 51°14.246 2°55.288 321.5 9.2 315 9.5
2003-12-09 08:00:24 51°14.254 2°55.273 319.5 9.2 313 9.6
2003-12-09 08:00:29 51°14.263 2°55.258 317.8 9.2 312 9.5
2003-12-09 08:00:33 51°14.27 2°55.245 316.6 9.4 311 9.9
2003-12-09 08:00:39 51°14.28 2°55.226 315.6 9.5 310 10
2003-12-09 08:00:45 51°14.29 2°55.207 315.2 9.7 311 9.5
2003-12-09 08:00:48 51°14.295 2°55.197 315.2 9.8 310 9.7
2003-12-09 08:00:55 51°14.308 2°55.173 314.4 10 309 9.5
2003-12-09 08:00:59 51°14.315 2°55.159 313.5 10.1 309 9.6
2003-12-09 08:01:04 51°14.324 2°55.142 313 10.1 309 9.5
2003-12-09 08:01:09 51°14.332 2°55.124 312.9 10.2 309 9.5
2003-12-09 08:01:13 51°14.34 2°55.11 312.8 10.4 309 9.8
2003-12-09 08:01:19 51°14.351 2°55.088 313.2 10.5 310 9.6
2003-12-09 08:01:25 51°14.363 2°55.068 315.6 10.7 315 9.6
2003-12-09 08:01:30 51°14.374 2°55.052 319.3 10.7 317 10
2003-12-09 08:01:35 51°14.386 2°55.037 323.2 10.9 321 10.1
2003-12-09 08:01:39 51°14.396 2°55.026 326.3 11 324 9.8
2003-12-09 08:01:44 51°14.409 2°55.013 331 11.1 328 9.9
2003-12-09 08:01:49 51°14.423 2°55.001 335.1 11.2 331 9.7
2003-12-09 08:01:54 51°14.436 2°54.989 337.5 11.3 331 9.5
2003-12-09 08:01:59 51°14.45 2°54.977 338 11.3 330 9.2
2003-12-09 08:02:04 51°14.463 2°54.963 337.6 11.4 328 9.1
2003-12-09 08:02:09 51°14.477 2°54.95 336.7 11.4 327 9
2003-12-09 08:02:13 51°14.487 2°54.938 335.3 11.5 325 8.9
2003-12-09 08:02:18 51°14.5 2°54.924 333.8 11.6 324 8.7
2003-12-09 08:02:24 51°14.515 2°54.905 332.4 11.7 321 8.8
2003-12-09 08:02:29 51°14.528 2°54.888 330.8 11.7 320 8.7
2003-12-09 08:02:33 51°14.537 2°54.874 328.4 11.8 317 8.8
2003-12-09 08:02:40 51°14.554 2°54.848 326.7 11.9 315 8.7
2003-12-09 08:02:45 51°14.565 2°54.829 325.1 12 314 8.8
2003-12-09 08:02:49 51°14.575 2°54.813 323.7 12.1 313 8.8
2003-12-09 08:02:54 51°14.586 2°54.793 322.5 12.2 312 8.8
2003-12-09 08:03:00 51°14.6 2°54.769 321.9 12.2 312 8.7
2003-12-09 08:03:05 51°14.612 2°54.75 322.6 12.2 315 8.7
2003-12-09 08:03:09 51°14.622 2°54.735 324.4 12.3 316 8.6
2003-12-09 08:03:13 51°14.632 2°54.72 326.8 12.3 319 8.6
2003-12-09 08:03:18 51°14.645 2°54.702 329 12.3 319 8.7
2003-12-09 08:03:24 51°14.66 2°54.681 329.9 12.4 320 8.6
2003-12-09 08:03:29 51°14.673 2°54.663 330.2 12.5 319 8.5
2003-12-09 08:03:33 51°14.684 2°54.649 330.1 12.6 319 8.6
2003-12-09 08:03:40 51°14.702 2°54.623 329.4 12.7 318 8.7
2003-12-09 08:03:45 51°14.715 2°54.604 328.4 12.8 317 8.6
2003-12-09 08:03:49 51°14.726 2°54.587 326.8 13 316 8.7
2003-12-09 08:03:55 51°14.742 2°54.563 325.8 13.1 316 8.6
2003-12-09 08:04:00 51°14.755 2°54.544 325.8 13.1 317 8.6
2003-12-09 08:04:05 51°14.769 2°54.525 326.6 13.1 319 8.6
2003-12-09 08:04:09 51°14.78 2°54.51 328.2 13.1 320 8.6
2003-12-09 08:04:13 51°14.791 2°54.496 330.3 13.1 323 8.5
2003-12-09 08:04:18 51°14.806 2°54.479 332.8 13.1 325 8.6
2003-12-09 08:04:24 51°14.824 2°54.459 334.3 13.1 326 8.5
2003-12-09 08:04:29 51°14.839 2°54.443 335.4 13.1 327 8.5
2003-12-09 08:04:33 51°14.852 2°54.431 336.4 13.1 327 8.4
2003-12-09 08:04:37 51°14.864 2°54.418 336.9 13.1 327 8.4
2003-12-09 08:04:44 51°14.885 2°54.396 337 13.1 326 8.2
2003-12-09 08:04:49 51°14.9 2°54.379 336.5 13.1 325 8.1
2003-12-09 08:04:54 51°14.915 2°54.362 335.1 13.1 323 7.9
2003-12-09 08:05:00 51°14.931 2°54.34 333.2 13.1 320 7.8
2003-12-09 08:05:05 51°14.945 2°54.321 331 13.1 318 7.7
2003-12-09 08:05:09 51°14.955 2°54.305 328.4 13 317 7.6
2003-12-09 08:05:15 51°14.971 2°54.282 327.2 13 317 7.6
2003-12-09 08:05:20 51°14.984 2°54.262 326.4 12.9 316 -999
2003-12-09 08:05:23 51°14.992 2°54.25 326.2 13 315 7.5
2003-12-09 08:05:29 51°15.007 2°54.225 325.9 13 315 7.6
2003-12-09 08:05:35 51°15.022 2°54.201 326 13 315 7.6
2003-12-09 08:05:39 51°15.032 2°54.184 325.9 13 314 5.6
2003-12-09 08:05:43 51°15.042 2°54.168 324.8 13.1 313 7.7
2003-12-09 08:05:47 51°15.052 2°54.15 324.1 13.1 314 7.7
2003-12-09 08:05:54 51°15.071 2°54.123 325.4 13.1 317 7.9
2003-12-09 08:05:59 51°15.084 2°54.104 328.2 13.1 321 7.8
2003-12-09 08:06:05 51°15.102 2°54.085 332.3 13 327 7.9
2003-12-09 08:06:09 51°15.115 2°54.074 337.2 12.9 330 7.9
2003-12-09 08:06:14 51°15.131 2°54.06 340.8 12.8 334 8
2003-12-09 08:06:18 51°15.144 2°54.051 344.1 12.8 336 8
2003-12-09 08:06:24 51°15.164 2°54.039 346.9 12.7 339 8.1
2003-12-09 08:06:29 51°15.18 2°54.029 349 12.7 339 8.2
2003-12-09 08:06:33 51°15.194 2°54.022 349.9 12.7 340 8.2
2003-12-09 08:06:40 51°15.217 2°54.009 350.4 12.8 341 8.3
2003-12-09 08:06:45 51°15.234 2°53.999 351 12.9 341 8.4
2003-12-09 08:06:50 51°15.251 2°53.99 351.2 12.9 341 8.4
2003-12-09 08:06:55 51°15.268 2°53.98 351.2 12.9 341 8.4
2003-12-09 08:06:59 51°15.282 2°53.974 351.4 12.9 343 8.4
2003-12-09 08:07:04 51°15.299 2°53.967 353.6 12.8 347 8.7
2003-12-09 08:07:09 51°15.316 2°53.962 356.7 12.8 350 8.6
2003-12-09 08:07:13 51°15.33 2°53.96 0.3 12.8 355 8.7
2003-12-09 08:07:20 51°15.355 2°53.959 4.5 12.7 358 8.7
2003-12-09 08:07:25 51°15.373 2°53.958 7.5 12.7   8.8
2003-12-09 08:07:29 51°15.387 2°53.959 9.3 12.7 2 8.8
2003-12-09 08:07:33 51°15.401 2°53.96 10.4 12.7 1 8.9
2003-12-09 08:07:39 51°15.422 2°53.96 10.6 12.7 1 8.9
2003-12-09 08:07:45 51°15.443 2°53.96 10.2 12.8   9
2003-12-09 08:07:48 51°15.454 2°53.96 9.2 12.9 357 9
2003-12-09 08:07:55 51°15.479 2°53.956 7.2 12.9 355 9
2003-12-09 08:08:00 51°15.497 2°53.953 4.3 12.9 353 9.1
2003-12-09 08:08:03 51°15.507 2°53.951 2.9 12.9 353 9.2
2003-12-09 08:08:09 51°15.529 2°53.946 2.3 13 352 9.3
2003-12-09 08:08:13 51°15.543 2°53.943 1.9 13 352 9.3
2003-12-09 08:08:19 51°15.564 2°53.939 2.1 13 353 9.3
2003-12-09 08:08:25 51°15.586 2°53.936 3.3 13 356 9.4
2003-12-09 08:08:28 51°15.597 2°53.936 5.8 12.9 359 9.5
2003-12-09 08:08:35 51°15.622 2°53.937 9.1 12.9 2 9.5
2003-12-09 08:08:40 51°15.639 2°53.939 11.1 12.9 3 9.6
2003-12-09 08:08:44 51°15.654 2°53.94 12.1 12.8 3 9.7
2003-12-09 08:08:49 51°15.672 2°53.941 12.3 12.8 3 9.8
2003-12-09 08:08:54 51°15.689 2°53.943 12.1 12.8 4 9.9
2003-12-09 08:08:59 51°15.707 2°53.945 12.7 12.9 4 9.9
2003-12-09 08:09:04 51°15.725 2°53.948 13.3 12.9 6 9.9
2003-12-09 08:09:08 51°15.739 2°53.95 14.5 12.9 6 10
2003-12-09 08:09:12 51°15.753 2°53.953 15.6 12.8 9 10
2003-12-09 08:09:19 51°15.778 2°53.96 16.7 12.8 10 10
2003-12-09 08:09:25 51°15.798 2°53.967 18.6 12.7 12 10.1
2003-12-09 08:09:30 51°15.815 2°53.974 20.4 12.7 14 10.1
2003-12-09 08:09:32 51°15.822 2°53.977 22.6 12.7 16 10.1
2003-12-09 08:09:39 51°15.846 2°53.988 24.2 12.7 17 10.2
2003-12-09 08:09:43 51°15.859 2°53.995 24.9 12.7 17 10.2
2003-12-09 08:09:48 51°15.876 2°54.003 25 12.7 16 10.2
2003-12-09 08:09:54 51°15.896 2°54.012 23.9 12.7 16 10.3
2003-12-09 08:10:00 51°15.917 2°54.021 22.8 12.7 15 10.3
2003-12-09 08:10:04 51°15.93 2°54.027 23.1 12.7 17 10.4
2003-12-09 08:10:09 51°15.947 2°54.036 24.6 12.7 19 10.4
2003-12-09 08:10:14 51°15.963 2°54.047 27.1 12.6 22 10.4
2003-12-09 08:10:20 51°15.982 2°54.06 29.7 12.6 24 10.4
2003-12-09 08:10:24 51°15.995 2°54.069 30.7 12.5 24 10.4
2003-12-09 08:10:29 51°16.011 2°54.079 30.8 12.2 23 10.5
2003-12-09 08:10:33 51°16.023 2°54.087 30.2 11.6 22 10.5
2003-12-09 08:10:40 51°16.044 2°54.099 29 11.3 20 10.6
2003-12-09 08:10:44 51°16.055 2°54.106 28.1 11 20 10.6
2003-12-09 08:10:49 51°16.069 2°54.115 28.2 10.6 22 10.7
2003-12-09 08:10:53 51°16.079 2°54.122 29.4 10.1 23 10.8
2003-12-09 08:11:00 51°16.097 2°54.135 30.9 9.9 25 10.8
2003-12-09 08:11:04 51°16.106 2°54.143 33.9 9.6 29 10.8
2003-12-09 08:11:09 51°16.117 2°54.153 36.1 9.3 30 10.8
2003-12-09 08:11:12 51°16.124 2°54.159 37.7 8.7 31 10.9
2003-12-09 08:11:20 51°16.14 2°54.175 38.4 8.5 31 10.9
2003-12-09 08:11:23 51°16.145 2°54.18 39 7.8 31 10.9
2003-12-09 08:11:29 51°16.156 2°54.191 39.8 7.5 32 10.8
2003-12-09 08:11:33 51°16.163 2°54.198 39.9 7.1 33 10.9
2003-12-09 08:11:39 51°16.173 2°54.207 40.1 6.9 31 10.9
2003-12-09 08:11:45 51°16.182 2°54.217 40.2 6.5 32 10.9
2003-12-09 08:11:50 51°16.189 2°54.224 40.6 6.3 32 11
2003-12-09 08:11:52 51°16.192 2°54.227 41 5.9 33 11
2003-12-09 08:12:00 51°16.203 2°54.238 41.3 5.6 33 11
2003-12-09 08:12:05 51°16.209 2°54.244 42.1 5.2 34 11
2003-12-09 08:12:09 51°16.213 2°54.249 43.3 5 35 11
2003-12-09 08:12:15 51°16.219 2°54.257 44.2 4.8 37 11
2003-12-09 08:12:19 51°16.223 2°54.261 45.9 4.4 38 11
2003-12-09 08:12:25 51°16.228 2°54.269 48 4.1 41 11
2003-12-09 08:12:28 51°16.231 2°54.272 50 4 43 11.1
2003-12-09 08:12:35 51°16.236 2°54.281 51.7 3.7 45 11.1
2003-12-09 08:12:40 51°16.239 2°54.286 53.6 3.6 46 11
2003-12-09 08:12:45 51°16.242 2°54.292 55.3 3.2 49 11
2003-12-09 08:12:48 51°16.243 2°54.295 57.1 3.1 52 11.1
2003-12-09 08:12:55 51°16.247 2°54.302 58.9 2.9 54 11
2003-12-09 08:13:00 51°16.248 2°54.307 60.5 2.7 58 11
2003-12-09 08:13:04 51°16.25 2°54.311 62.1 2.5 58 11
2003-12-09 08:13:09 51°16.251 2°54.316 63.8 2.4 63 11
2003-12-09 08:13:14 51°16.253 2°54.32 65.6 2.2 66 11
2003-12-09 08:13:20 51°16.254 2°54.325 66.7 2 67 11
2003-12-09 08:13:25 51°16.255 2°54.328 68 1.5 72 11
2003-12-09 08:13:29 51°16.255 2°54.33 69.4 1.2 76 11
2003-12-09 08:13:34 51°16.255 2°54.332 71.4 0.7 92 11
2003-12-09 08:13:40 51°16.255 2°54.333 73.3 0.5 98 11.1
2003-12-09 08:13:45 51°16.254 2°54.333 75.8 0.3 159 11
2003-12-09 08:13:49 51°16.254 2°54.333 78.9 0.4 202 11
2003-12-09 08:13:53 51°16.254 2°54.333 82.3 0.6 219 11
2003-12-09 08:14:00 51°16.253 2°54.331 83.5 0.7 234 11
2003-12-09 08:14:05 51°16.252 2°54.33 84.7 0.8 236 11
2003-12-09 08:14:10 51°16.251 2°54.328 85.6 0.8 231 11
2003-12-09 08:14:15 51°16.251 2°54.326 86.5 0.9 236 11
2003-12-09 08:14:20 51°16.25 2°54.325 87 0.9 231 11
2003-12-09 08:14:25 51°16.249 2°54.323 87.7 0.9 237 11
2003-12-09 08:14:28 51°16.249 2°54.322 87.8 1 229 11
2003-12-09 08:14:33 51°16.248 2°54.32 87.9 0.9 235 11
2003-12-09 08:14:39 51°16.247 2°54.318 88 1 230 11
2003-12-09 08:14:44 51°16.246 2°54.317 88.1 0.9 238 11
2003-12-09 08:14:50 51°16.245 2°54.314 88.1 1 232 11
2003-12-09 08:14:52 51°16.245 2°54.314 88.2 1 239 11
2003-12-09 08:14:57 51°16.244 2°54.312 88.5 1.1 233 11
2003-12-09 08:15:05 51°16.243 2°54.309 88.6 1 240 11.1
2003-12-09 08:15:09 51°16.242 2°54.307 88.8 1.1 233 11.1
2003-12-09 08:15:12 51°16.242 2°54.306 89 1 238 11
2003-12-09 08:15:20 51°16.241 2°54.303 89.2 1.1 235 11
2003-12-09 08:15:24 51°16.24 2°54.301 89.5 1.1 238 11.1
2003-12-09 08:15:29 51°16.239 2°54.299 89.6 1.1 237 11
2003-12-09 08:15:32 51°16.239 2°54.298 89.9 1.1 238 11.1
2003-12-09 08:15:37 51°16.238 2°54.296 90.1 1.1 237 11
2003-12-09 08:16:01 51°16.234 2°54.286 91.2 1.1 240 11.1
2003-12-09 08:16:08 51°16.233 2°54.283 91.4 1.1 236 11.1
2003-12-09 08:16:12 51°16.233 2°54.281 91.8 1.1 239 11.1
2003-12-09 08:16:17 51°16.232 2°54.279 92.2 1.1 238 11.1
2003-12-09 08:16:22 51°16.231 2°54.277 92.4 1.1 239 11.1
2003-12-09 08:16:27 51°16.23 2°54.275 92.7 1.1 238 11.1
2003-12-09 08:16:32 51°16.229 2°54.273 93 1.1 240 11.1
2003-12-09 08:16:37 51°16.228 2°54.271 93.4 1.1 234 11.1
2003-12-09 08:16:42 51°16.228 2°54.269 93.7 1 241 11.1
2003-12-09 08:16:48 51°16.227 2°54.267 93.9 1.1 234 11.1
2003-12-09 08:16:52 51°16.226 2°54.265 93.9 1 239 11.1
2003-12-09 08:16:58 51°16.225 2°54.263 93.9 1.1 232 11.1
2003-12-09 08:17:02 51°16.224 2°54.262 93.8 0.9 236 11.1
2003-12-09 08:17:08 51°16.223 2°54.26 93.5 1 231 11.1
2003-12-09 08:17:12 51°16.223 2°54.258 93.2 0.9 235 11.1
2003-12-09 08:17:17 51°16.222 2°54.257 92.9 1 227 11.1
2003-12-09 08:17:23 51°16.221 2°54.255 92.6 0.8 235 11.1
2003-12-09 08:17:28 51°16.22 2°54.254 92.1 0.9 223 11.1
2003-12-09 08:17:32 51°16.22 2°54.252 91.8 0.8 235 11.1
2003-12-09 08:17:37 51°16.219 2°54.251 91.4 0.9 219 11.1
2003-12-09 08:17:40 51°16.218 2°54.251 90.9 0.8 229 11.1
2003-12-09 08:17:48 51°16.217 2°54.249 90.5 0.9 219 11.1
2003-12-09 08:17:52 51°16.216 2°54.248 90.1 0.7 226 11.1
2003-12-09 08:17:57 51°16.215 2°54.246 89.8 0.8 216 11.1
2003-12-09 08:18:02 51°16.215 2°54.245 89.3 0.7 224 11.1
2003-12-09 08:18:07 51°16.214 2°54.244 89 0.7 214 11.1
2003-12-09 08:18:12 51°16.214 2°54.243 88.6 0.7 215 11.1
2003-12-09 08:18:16 51°16.213 2°54.243 88.3 0.7 215 11.1
2003-12-09 08:18:21 51°16.212 2°54.242 87.9 0.6 211 11.1
2003-12-09 08:18:28 51°16.211 2°54.241 87.6 0.6 210 11.1
2003-12-09 08:18:32 51°16.21 2°54.24 87.2 0.6 208 11.1
2003-12-09 08:18:38 51°16.21 2°54.24 87.1 0.6 208 11.1
2003-12-09 08:18:41 51°16.209 2°54.239 86.7 0.6 206 11.1
2003-12-09 08:18:48 51°16.208 2°54.239 86.5 0.5 209 11
2003-12-09 08:18:52 51°16.208 2°54.238 86.2 0.6 198 11.1
2003-12-09 08:18:56 51°16.207 2°54.238 85.8 0.5 195 11.1
2003-12-09 08:19:03 51°16.206 2°54.238 85.4 0.5 194 11.1
2003-12-09 08:19:08 51°16.205 2°54.237 84.9 0.5 190 11.1
2003-12-09 08:19:12 51°16.205 2°54.237 84.4 0.4 194 11.1
2003-12-09 08:19:16 51°16.204 2°54.237 83.9 0.5 186 11.1
2003-12-09 08:19:23 51°16.204 2°54.237 83.4 0.4 187 11.1
2003-12-09 08:19:28 51°16.203 2°54.237 82.6 0.4 186 11.1
2003-12-09 08:19:32 51°16.203 2°54.237 82 0.4 182 11.1
2003-12-09 08:19:38 51°16.202 2°54.237 80.8 0.4 178 11.1
2003-12-09 08:19:43 51°16.201 2°54.237 80.3 0.4 173 11.1
2003-12-09 08:19:48 51°16.201 2°54.237 79.4 0.3 172 11.1
2003-12-09 08:19:52 51°16.2 2°54.236 78.6 0.3 167 11.1
2003-12-09 08:19:56 51°16.2 2°54.236 77.7 0.3 165 11.1
2003-12-09 08:20:01 51°16.199 2°54.237 76.9 0.3 159 11.1
2003-12-09 08:20:08 51°16.199 2°54.237 76 0.2 160 11.1
2003-12-09 08:20:12 51°16.198 2°54.237 75.1 0.3 158 11.1
2003-12-09 08:20:18 51°16.198 2°54.237 74.1 0.1 150 11.1
2003-12-09 08:20:23 51°16.198 2°54.237 73.3 0.2 142 11.1
2003-12-09 08:20:28 51°16.198 2°54.238 72 0.1 115 11.1
2003-12-09 08:20:32 51°16.198 2°54.238 71.1 0.2 121 11.1
2003-12-09 08:20:38 51°16.198 2°54.238 70.1 0.1 105 11.1
2003-12-09 08:20:40 51°16.198 2°54.239 69.2 0.2 117 11.1
2003-12-09 08:20:48 51°16.198 2°54.239 68.2 0.2 82 11.1
2003-12-09 08:20:52 51°16.198 2°54.24 67.3 0.2 82 11.1
2003-12-09 08:20:58 51°16.198 2°54.24 66.2 0.2 61 11.1
2003-12-09 08:21:00 51°16.198 2°54.24 65.4 0.2 78 11.1
2003-12-09 08:21:07 51°16.198 2°54.241 64.8 0.2 52 11.1
2003-12-09 08:21:12 51°16.198 2°54.241 64.4 0.3 73 11.1
2003-12-09 08:21:16 51°16.198 2°54.241 64.1 0.3 44 11.1
2003-12-09 08:21:20 51°16.199 2°54.242 63.8 0.3 60 11.1
2003-12-09 08:21:27 51°16.199 2°54.242 63.8 0.3 47 11.1
2003-12-09 08:21:32 51°16.199 2°54.243 63.8 0.3 50 11.1
2003-12-09 08:21:36 51°16.199 2°54.243 63.7 0.3 52 11.1
2003-12-09 08:21:42 51°16.2 2°54.244 63.7 0.4 46 11.1
2003-12-09 08:21:47 51°16.2 2°54.245 63.5 0.4 56 11.1
2003-12-09 08:21:52 51°16.2 2°54.245 63.6 0.4 50 11.1
2003-12-09 08:21:57 51°16.201 2°54.246 63.6 0.4 51 11.1
2003-12-09 08:22:00 51°16.201 2°54.246 63.6 0.4 55 11.1
2003-12-09 08:22:08 51°16.201 2°54.247 63.6 0.4 51 11.1
2003-12-09 08:22:12 51°16.202 2°54.248 63.6 0.4 59 11.1
2003-12-09 08:22:17 51°16.202 2°54.249 63.7 0.4 56 11.1
2003-12-09 08:22:22 51°16.202 2°54.249 63.9 0.4 58 11.1
2003-12-09 08:22:28 51°16.203 2°54.25 64.2 0.4 60 11.1
2003-12-09 08:22:32 51°16.203 2°54.251 64.2 0.5 56 11.1
2003-12-09 08:22:38 51°16.204 2°54.253 64.4 0.9 52 11.1
2003-12-09 08:22:40 51°16.204 2°54.254 63.6 1.6 53 11.1
2003-12-09 08:22:47 51°16.207 2°54.259 60.2 2.1 46 11.1
2003-12-09 08:22:53 51°16.211 2°54.263 54.9 2.7 39 11.1
2003-12-09 08:22:57 51°16.214 2°54.266 48.6 3.1 32 11.1
2003-12-09 08:23:02 51°16.218 2°54.269 41.7 3.6 22 11.1
2003-12-09 08:23:08 51°16.225 2°54.273 34.5 3.9 14 11.1
2003-12-09 08:23:12 51°16.23 2°54.273 27.3 4.4 4 11.1
2003-12-09 08:23:17 51°16.237 2°54.273 19.9 4.7 358 11.1
2003-12-09 08:23:21 51°16.243 2°54.272 12.5 5.1 348 11.1
2003-12-09 08:23:27 51°16.251 2°54.267 5.2 5.4 342 11.1
2003-12-09 08:23:32 51°16.258 2°54.262 357.8 5.8 333 11.1
2003-12-09 08:23:38 51°16.267 2°54.253 350.4 6.1 327 11.1
2003-12-09 08:23:43 51°16.274 2°54.244 342.9 6.4 318 11.1
2003-12-09 08:23:48 51°16.28 2°54.232 335.4 6.6 315 11.1
2003-12-09 08:23:52 51°16.285 2°54.222 329.4 7.2 306 11.2
2003-12-09 08:23:58 51°16.292 2°54.204 322.2 7.9 302 11.2
2003-12-09 08:24:01 51°16.296 2°54.195 317.7 8.8 302 11.2
2003-12-09 08:24:08 51°16.304 2°54.169 315.3 9.3 300 11.2
2003-12-09 08:24:12 51°16.31 2°54.154 313.6 10 300 11.1
2003-12-09 08:24:17 51°16.317 2°54.134 312.6 10.5 299 11.2
2003-12-09 08:24:22 51°16.325 2°54.112 312 11.2 299 11.2
2003-12-09 08:24:27 51°16.332 2°54.09 311.5 11.5 299 11.2
2003-12-09 08:24:32 51°16.341 2°54.068 311.3 11.9 300 11.2
2003-12-09 08:24:37 51°16.35 2°54.045 312 12.2 303 11.1
2003-12-09 08:24:42 51°16.36 2°54.022 314.2 12.7 305 11.1
2003-12-09 08:24:48 51°16.373 2°53.995 316.4 12.9 307 11.2
2003-12-09 08:24:53 51°16.384 2°53.971 316.7 13.2 305 11.1
2003-12-09 08:24:58 51°16.394 2°53.946 315.4 13.4 303 11.2
2003-12-09 08:25:00 51°16.398 2°53.936 313.5 13.6 302 11.2
2003-12-09 08:25:08 51°16.414 2°53.895 311.5 13.7 302 11.2
2003-12-09 08:25:12 51°16.422 2°53.874 311.1 13.8 302 11.2
2003-12-09 08:25:18 51°16.435 2°53.843 310.8 13.9 302 11.3
2003-12-09 08:25:21 51°16.441 2°53.828 311 13.9 303 11.3
2003-12-09 08:25:50 51°16.501 2°53.674 311 14.2 302 11.3
2003-12-09 08:25:56 51°16.514 2°53.642 311 14.2 302 11.3
2003-12-09 08:26:00 51°16.522 2°53.621 311 14.2 302 11.3
2003-12-09 08:26:06 51°16.535 2°53.589 311.3 14.2 303 11.2
2003-12-09 08:26:11 51°16.545 2°53.563 311.6 14.2 303 11.3
2003-12-09 08:26:16 51°16.556 2°53.537 311.9 14.1 303 11.2
2003-12-09 08:26:20 51°16.565 2°53.516 311.9 14.1 303 11.2
2003-12-09 08:26:25 51°16.576 2°53.49 312.2 14.1 305 11.2
2003-12-09 08:26:29 51°16.585 2°53.47 313.6 14.1 306 11.1
2003-12-09 08:26:36 51°16.602 2°53.435 314.6 14 307 11.2
2003-12-09 08:26:40 51°16.611 2°53.415 315.4 14 307 11.1
2003-12-09 08:26:45 51°16.623 2°53.391 316.4 14 309 11.1
2003-12-09 08:26:51 51°16.638 2°53.362 317.2 14 309 11
2003-12-09 08:26:56 51°16.65 2°53.338 317.6 13.9 310 10.9
2003-12-09 08:27:00 51°16.66 2°53.319 318.3 13.9 310 10.9
2003-12-09 08:27:06 51°16.675 2°53.291 318.6 13.9 310 10.8
2003-12-09 08:27:11 51°16.687 2°53.267 318.5 14 310 10.8
2003-12-09 08:27:16 51°16.7 2°53.244 318.4 13.9 311 10.7
2003-12-09 08:27:21 51°16.712 2°53.22 318.9 13.9 311 10.6
2003-12-09 08:27:24 51°16.72 2°53.207 319.9 13.8 312 10.7
2003-12-09 08:27:30 51°16.735 2°53.179 320.2 13.8 312 10.6
2003-12-09 08:27:36 51°16.751 2°53.152 320.6 13.8 312 10.5
2003-12-09 08:27:40 51°16.761 2°53.134 321.2 13.8 313 10.4
2003-12-09 08:27:46 51°16.777 2°53.108 321.9 13.8 314 10.3
2003-12-09 08:27:48 51°16.783 2°53.099 322.2 13.8 313 10.1
2003-12-09 08:27:56 51°16.804 2°53.064 322.3 13.7 314 9.9
2003-12-09 08:28:00 51°16.814 2°53.046 322.6 13.7 314 9.5
2003-12-09 08:28:06 51°16.83 2°53.02 322.7 13.6 313 8.7
2003-12-09 08:28:10 51°16.84 2°53.003 322.1 13.3 313 8.2
2003-12-09 08:28:16 51°16.854 2°52.977 322.1 13.1 313 7.9
2003-12-09 08:28:20 51°16.864 2°52.96 321.7 12.9 312 7.7
2003-12-09 08:28:25 51°16.876 2°52.939 321.5 12.8 312 7.8
2003-12-09 08:28:29 51°16.885 2°52.922 321.1 12.8 311 5.7
2003-12-09 08:28:36 51°16.901 2°52.892 320.6 13 310 7.9
2003-12-09 08:28:40 51°16.911 2°52.874 319.9 13.1 309 8.3
2003-12-09 08:28:45 51°16.922 2°52.851 318.9 13.2 309 8.4
2003-12-09 08:28:49 51°16.932 2°52.833 318.5 13.4 309 8.6
2003-12-09 08:28:56 51°16.948 2°52.8 318.2 13.5 309 8.6
2003-12-09 08:29:00 51°16.958 2°52.782 319.5 13.5 312 8.8
2003-12-09 08:29:04 51°16.969 2°52.765 321.8 13.5 316 8.8
2003-12-09 08:29:09 51°16.982 2°52.745 323.9 13.5 317 8.7
2003-12-09 08:29:15 51°16.999 2°52.721 326.4 13.5 319 9
2003-12-09 08:29:20 51°17.013 2°52.702 328.2 13.5 320 9.3
2003-12-09 08:29:26 51°17.031 2°52.679 329.7 13.5 320 9.3
2003-12-09 08:29:29 51°17.04 2°52.668 330.4 13.6 321 9.4
2003-12-09 08:29:36 51°17.06 2°52.641 330.7 13.7 321 9.2
2003-12-09 08:29:40 51°17.072 2°52.625 330.6 13.6 320 8.9
2003-12-09 08:29:45 51°17.086 2°52.606 330.1 13.5 320 8.8
2003-12-09 08:29:49 51°17.097 2°52.59 329.1 13.4 318 8.8
2003-12-09 08:29:56 51°17.116 2°52.562 328.2 13.3 318 8.8
2003-12-09 08:30:00 51°17.127 2°52.546 327.6 13.4 317 8.9
2003-12-09 08:30:03 51°17.135 2°52.534 327.3 13.4 317 9
2003-12-09 08:30:09 51°17.152 2°52.51 327.1 13.5 317 8.9
2003-12-09 08:30:16 51°17.171 2°52.481 327.1 13.5 318 9
2003-12-09 08:30:20 51°17.182 2°52.466 327.5 13.5 318 9
2003-12-09 08:30:26 51°17.199 2°52.441 327.8 13.5 318 9.3
2003-12-09 08:30:29 51°17.208 2°52.43 328.4 13.6 319 9.2
2003-12-09 08:30:35 51°17.225 2°52.406 328.7 13.6 319 9.4
2003-12-09 08:30:40 51°17.239 2°52.386 328.9 13.6 319 9.4
2003-12-09 08:30:46 51°17.256 2°52.362 329 13.6 319 9.5
2003-12-09 08:30:49 51°17.264 2°52.349 328.7 13.7 318 9.6
2003-12-09 08:30:56 51°17.284 2°52.321 328 13.7 318 9.6
2003-12-09 08:31:00 51°17.295 2°52.304 327.8 13.8 317 9.7
2003-12-09 08:31:04 51°17.306 2°52.288 327.3 13.8 317 9.8
2003-12-09 08:31:11 51°17.326 2°52.259 327.1 13.8 317 9.6
2003-12-09 08:31:16 51°17.34 2°52.238 327.3 13.7 317 9.6
2003-12-09 08:31:20 51°17.351 2°52.222 327.6 13.7 318 9.5
2003-12-09 08:31:26 51°17.368 2°52.197 328 13.7 318 9.8
2003-12-09 08:31:29 51°17.376 2°52.185 328.1 13.7 318 9.9
2003-12-09 08:31:36 51°17.396 2°52.157 328.1 13.7 318 9.8
2003-12-09 08:31:40 51°17.407 2°52.14 327.8 13.7 317 9.7
2003-12-09 08:31:45 51°17.421 2°52.119 327.7 13.7 318 9.8
2003-12-09 08:31:50 51°17.435 2°52.099 327.7 13.7 317 9.8
2003-12-09 08:31:56 51°17.452 2°52.074 327.3 13.7 317 9.8
2003-12-09 08:32:01 51°17.466 2°52.053 327.2 13.7 317 9.8
2003-12-09 08:32:06 51°17.48 2°52.033 327.3 13.7 317 9.9
2003-12-09 08:32:10 51°17.491 2°52.016 327.5 13.7 318 9.7
2003-12-09 08:32:15 51°17.505 2°51.996 327.8 13.7 318 9.8
2003-12-09 08:32:20 51°17.519 2°51.975 328 13.7 317 9.8
2003-12-09 08:32:25 51°17.533 2°51.955 327.7 13.7 317 9.8
2003-12-09 08:32:30 51°17.547 2°51.935 327.6 13.7 317 9.9
2003-12-09 08:32:36 51°17.563 2°51.91 327.3 13.7 317 9.7
2003-12-09 08:32:40 51°17.574 2°51.893 327.2 13.7 317 9.6
2003-12-09 08:32:44 51°17.586 2°51.876 327.3 13.7 317 9.6
2003-12-09 08:32:51 51°17.605 2°51.847 327.3 13.6 317 9.6
2003-12-09 08:32:56 51°17.619 2°51.827 327.3 13.7 317 9.5
2003-12-09 08:33:00 51°17.63 2°51.81 327.4 13.6 317 9.7
2003-12-09 08:33:04 51°17.641 2°51.794 327.7 13.6 318 9.4
2003-12-09 08:33:10 51°17.658 2°51.77 328 13.6 318 9.6
2003-12-09 08:33:16 51°17.674 2°51.745 327.8 13.6 317 9.6
2003-12-09 08:33:20 51°17.685 2°51.729 327.4 13.6 318 9.4
2003-12-09 08:33:24 51°17.697 2°51.713 327.6 13.6 317 9.4
2003-12-09 08:33:31 51°17.716 2°51.684 327.8 13.6 317 9.3
2003-12-09 08:33:36 51°17.73 2°51.663 327.3 13.6 317 9.3
2003-12-09 08:33:40 51°17.741 2°51.647 327.1 13.6 317 9.3
2003-12-09 08:33:45 51°17.754 2°51.627 327.1 13.6 317 9.3
2003-12-09 08:33:48 51°17.763 2°51.614 327.4 13.6 318 9.5
2003-12-09 08:33:56 51°17.785 2°51.582 327.7 13.6 318 9.4
2003-12-09 08:34:00 51°17.796 2°51.566 327.9 13.6 318 9.6
2003-12-09 08:34:06 51°17.813 2°51.541 328 13.7 318 9.3
2003-12-09 08:34:09 51°17.821 2°51.529 327.9 13.7 317 9.5
2003-12-09 08:34:16 51°17.841 2°51.5 327.4 13.7 317 9.5
2003-12-09 08:34:20 51°17.852 2°51.483 327.4 13.8 317 9.5
2003-12-09 08:34:25 51°17.866 2°51.463 327.3 13.8 317 9.7
2003-12-09 08:34:30 51°17.88 2°51.442 327.3 13.8 317 9.8
2003-12-09 08:34:36 51°17.897 2°51.417 327.3 13.8 317 9.8
2003-12-09 08:34:40 51°17.908 2°51.401 327.3 13.9 317 10
2003-12-09 08:34:45 51°17.922 2°51.38 327.3 13.9 317 9.9
2003-12-09 08:34:50 51°17.936 2°51.359 327.3 13.9 317 10.3
2003-12-09 08:34:56 51°17.953 2°51.333 327.4 13.9 317 10.3
2003-12-09 08:35:00 51°17.965 2°51.317 327.7 13.9 317 10.3
2003-12-09 08:35:04 51°17.976 2°51.299 327.7 14 317 10.6
2003-12-09 08:35:09 51°17.99 2°51.278 327.3 14 316 10.7
2003-12-09 08:35:16 51°18.01 2°51.248 327.2 14 317 10.5
2003-12-09 08:35:20 51°18.021 2°51.231 327.3 14 317 10.9
2003-12-09 08:35:26 51°18.038 2°51.206 327.5 14 317 11.1
2003-12-09 08:35:29 51°18.047 2°51.193 327.5 14 317 11.2
2003-12-09 08:35:36 51°18.066 2°51.163 327.3 14.1 317 11.2
2003-12-09 08:35:40 51°18.078 2°51.146 327.2 14.1 316 11.4
2003-12-09 08:35:46 51°18.095 2°51.121 327.3 14.1 317 11.7
2003-12-09 08:35:51 51°18.109 2°51.1 327.8 14 317 11.7
2003-12-09 08:35:56 51°18.123 2°51.079 327.8 14 317 11.8
2003-12-09 08:36:01 51°18.138 2°51.057 327.4 14 317 11.9
2003-12-09 08:36:06 51°18.152 2°51.037 327.6 13.8 317 12
2003-12-09 08:36:10 51°18.163 2°51.021 328.3 13.1 318 12.2
2003-12-09 08:36:16 51°18.179 2°50.999 329.2 12.9 319 12.2
2003-12-09 08:36:20 51°18.189 2°50.985 330.7 12.4 321 12.2
2003-12-09 08:36:25 51°18.203 2°50.969 333.2 12 323 12.5
2003-12-09 08:36:29 51°18.213 2°50.957 335.5 11.5 325 12.5
2003-12-09 08:36:36 51°18.232 2°50.938 337.5 11.1 328 12.7
2003-12-09 08:36:40 51°18.242 2°50.929 340.1 11 330 12.6
2003-12-09 08:36:44 51°18.253 2°50.92 342.9 10.8 333 12.7
2003-12-09 08:36:51 51°18.272 2°50.907 345.1 10.6 335 12.8
2003-12-09 08:36:56 51°18.285 2°50.899 348.9 10.3 340 12.8
2003-12-09 08:37:01 51°18.299 2°50.894 353.4 10.1 346 12.8
2003-12-09 08:37:05 51°18.31 2°50.891 357.8 9.9 350 12.9
2003-12-09 08:37:11 51°18.326 2°50.889 2.3 9.7 355 12.9
2003-12-09 08:37:17 51°18.342 2°50.889 6.9 9.5 359 13.1
2003-12-09 08:37:21 51°18.351 2°50.89 11.2 8.9 4 13.1
2003-12-09 08:37:26 51°18.363 2°50.893 15.1 8.5 7 13.2
2003-12-09 08:37:29 51°18.37 2°50.895 19 8.3 11 13.2
2003-12-09 08:37:37 51°18.387 2°50.903 23.1 8 16 13.2
2003-12-09 08:37:41 51°18.394 2°50.909 28.2 7.7 24 13.4
2003-12-09 08:37:46 51°18.403 2°50.917 33.6 7.4 28 13.3
2003-12-09 08:37:50 51°18.409 2°50.924 38.9 7 33 13.4
2003-12-09 08:37:57 51°18.42 2°50.934 42 6.5 34 13.4
2003-12-09 08:38:01 51°18.425 2°50.941 42.3 6 34 13.2
2003-12-09 08:38:06 51°18.432 2°50.948 41.9 5.7 32 13.2
2003-12-09 08:38:09 51°18.436 2°50.952 41.4 5.3 32 13.4
2003-12-09 08:38:17 51°18.445 2°50.961 40.8 5.1 31 13.3
2003-12-09 08:38:21 51°18.45 2°50.965 40.4 4.7 30 13.4
2003-12-09 08:38:27 51°18.456 2°50.971 39.9 4.5 29 13.4
2003-12-09 08:38:29 51°18.458 2°50.973 39.5 4.3 28 13.4
2003-12-09 08:38:36 51°18.465 2°50.979 38.9 4.1 28 13.5
2003-12-09 08:38:41 51°18.47 2°50.982 38.4 3.9 27 13.5
2003-12-09 08:38:45 51°18.474 2°50.985 38.1 3.7 27 13.4
2003-12-09 08:38:49 51°18.477 2°50.988 38.1 3.5 27 13.5
2003-12-09 08:38:57 51°18.484 2°50.994 38.4 3.4 26 13.4
2003-12-09 08:39:01 51°18.487 2°50.996 38.8 3.2 27 13.5
2003-12-09 08:39:06 51°18.491 2°50.999 39.3 3.1 28 13.5
2003-12-09 08:39:11 51°18.495 2°51.002 40 2.9 28 13.4
2003-12-09 08:39:16 51°18.498 2°51.005 41.1 2.6 29 13.6
2003-12-09 08:39:21 51°18.5 2°51.007 42.2 2.1 25 13.6
2003-12-09 08:39:25 51°18.502 2°51.008 42.9 1.8 24 13.5
2003-12-09 08:39:30 51°18.504 2°51.009 42.5 1.3 15 13.5
2003-12-09 08:39:37 51°18.506 2°51.009 40.1 1 357 13.6
2003-12-09 08:39:41 51°18.507 2°51.009 37.3 0.8 345 13.6
2003-12-09 08:39:46 51°18.508 2°51.008 32.6 0.8 333 13.6
2003-12-09 08:39:50 51°18.508 2°51.007 28.5 0.9 326 13.6
2003-12-09 08:39:57 51°18.51 2°51.005 25 0.9 319 13.6
2003-12-09 08:40:01 51°18.511 2°51.004 22.2 1 318 13.5
2003-12-09 08:40:06 51°18.512 2°51.002 20 1 314 13.6
2003-12-09 08:40:11 51°18.513 2°51.001 18.1 1.1 313 13.6
2003-12-09 08:40:16 51°18.514 2°50.999 16.8 1.1 311 13.6
2003-12-09 08:40:21 51°18.515 2°50.997 16.1 1.1 310 13.6
2003-12-09 08:40:26 51°18.516 2°50.995 15.8 1.1 308 13.6
2003-12-09 08:40:31 51°18.516 2°50.993 15.7 1 308 13.6
2003-12-09 08:40:36 51°18.517 2°50.991 15.9 1.1 306 13.5
2003-12-09 08:40:41 51°18.518 2°50.989 16.6 1 305 13.6
2003-12-09 08:40:44 51°18.519 2°50.988 17.4 1.1 303 13.6
2003-12-09 08:40:50 51°18.519 2°50.985 18.1 1 303 13.6
2003-12-09 08:40:57 51°18.521 2°50.983 18.8 1 304 13.6
2003-12-09 08:41:01 51°18.521 2°50.982 19.8 1 304 13.6
2003-12-09 08:41:06 51°18.522 2°50.98 21 1 302 13.6
2003-12-09 08:41:10 51°18.523 2°50.979 22 0.9 302 13.7
2003-12-09 08:41:17 51°18.524 2°50.976 23 0.9 303 13.7
2003-12-09 08:41:21 51°18.524 2°50.975 23.9 0.9 303 13.7
2003-12-09 08:41:26 51°18.525 2°50.973 25.4 0.8 303 13.6
2003-12-09 08:41:30 51°18.525 2°50.972 26.9 0.8 303 13.7
2003-12-09 08:41:37 51°18.526 2°50.97 28.6 0.7 302 13.8
2003-12-09 08:41:41 51°18.526 2°50.969 29.9 0.8 302 13.7
2003-12-09 08:41:46 51°18.527 2°50.968 31.8 0.7 299 13.7
2003-12-09 08:41:51 51°18.527 2°50.967 33.2 0.6 298 13.6
2003-12-09 08:41:56 51°18.528 2°50.966 35 0.6 298 13.7
2003-12-09 08:42:01 51°18.528 2°50.964 36.6 0.6 295 13.7
2003-12-09 08:42:06 51°18.528 2°50.963 38.2 0.6 292 13.7
2003-12-09 08:42:11 51°18.528 2°50.962 39.6 0.5 290 13.7
2003-12-09 08:42:17 51°18.529 2°50.961 40.6 0.5 293 13.7
2003-12-09 08:42:21 51°18.529 2°50.96 42 0.5 286 13.7
2003-12-09 08:42:26 51°18.529 2°50.959 43.7 0.5 284 13.7
2003-12-09 08:42:31 51°18.529 2°50.958 45.1 0.5 281 13.7
2003-12-09 08:42:36 51°18.53 2°50.957 46.5 0.4 279 13.7
2003-12-09 08:42:41 51°18.53 2°50.957 47.7 0.4 278 13.7
2003-12-09 08:42:45 51°18.53 2°50.956 49.3 0.4 272 13.8
2003-12-09 08:42:49 51°18.53 2°50.955 50.6 0.4 265 13.7
2003-12-09 08:42:57 51°18.53 2°50.954 51.5 0.4 265 13.7
2003-12-09 08:43:01 51°18.529 2°50.953 52.9 0.4 258 13.7
2003-12-09 08:43:06 51°18.529 2°50.952 54 0.4 256 13.6
2003-12-09 08:43:11 51°18.529 2°50.951 54.7 0.4 258 13.6
2003-12-09 08:43:17 51°18.529 2°50.95 55.8 0.4 245 13.7
2003-12-09 08:43:21 51°18.529 2°50.95 56.9 0.4 248 13.7
2003-12-09 08:43:26 51°18.529 2°50.949 58.1 0.3 240 13.7
2003-12-09 08:43:29 51°18.528 2°50.948 58.9 0.4 231 13.8
2003-12-09 08:43:37 51°18.528 2°50.947 59.9 0.4 246 13.7
2003-12-09 08:43:41 51°18.528 2°50.947 61 0.4 234 13.7
2003-12-09 08:43:46 51°18.528 2°50.946 62 0.4 230 13.7
2003-12-09 08:43:51 51°18.527 2°50.945 63 0.4 234 13.7
2003-12-09 08:43:56 51°18.527 2°50.945 63.9 0.4 223 13.7
2003-12-09 08:44:01 51°18.526 2°50.944 64.9 0.4 228 13.7
2003-12-09 08:44:06 51°18.526 2°50.943 65.7 0.4 217 13.6
2003-12-09 08:44:10 51°18.526 2°50.943 66.6 0.4 226 13.7
2003-12-09 08:44:17 51°18.525 2°50.942 67.4 0.4 216 13.6
2003-12-09 08:44:21 51°18.525 2°50.941 68.3 0.4 229 13.6
2003-12-09 08:44:25 51°18.524 2°50.941 69.5 0.5 207 13.7
2003-12-09 08:44:29 51°18.524 2°50.94 70.7 0.4 218 13.7
2003-12-09 08:44:37 51°18.523 2°50.94 71.7 0.5 213 13.8
2003-12-09 08:44:41 51°18.522 2°50.939 72.7 0.5 213 13.7
2003-12-09 08:44:46 51°18.522 2°50.938 73.6 0.5 210 13.7
2003-12-09 08:44:49 51°18.521 2°50.938 74.7 0.5 208 13.7
2003-12-09 08:44:57 51°18.52 2°50.937 75.4 0.5 210 13.7
2003-12-09 08:45:01 51°18.52 2°50.937 76.3 0.5 214 13.8
2003-12-09 08:45:05 51°18.519 2°50.936 77.1 0.5 211 13.7
2003-12-09 08:45:11 51°18.519 2°50.936 77.7 0.5 212 13.7
2003-12-09 08:45:17 51°18.518 2°50.935 78.3 0.6 205 13.7
2003-12-09 08:45:21 51°18.517 2°50.934 79.1 0.5 209 13.7
2003-12-09 08:45:26 51°18.517 2°50.934 79.8 0.6 205 13.8
2003-12-09 08:45:30 51°18.516 2°50.933 80.7 0.5 207 13.7
2003-12-09 08:45:37 51°18.515 2°50.933 81.4 0.6 203 13.7
2003-12-09 08:45:41 51°18.515 2°50.932 82.4 0.6 209 13.7
2003-12-09 08:45:46 51°18.514 2°50.932 83.2 0.6 202 13.7
2003-12-09 08:45:57 51°18.512 2°50.93 84.9 0.7 202 13.6
2003-12-09 08:46:01 51°18.512 2°50.93 85.8 0.6 206 13.6
2003-12-09 08:46:06 51°18.511 2°50.929 86.7 0.7 202 13.7
2003-12-09 08:46:10 51°18.51 2°50.929 87.3 0.7 204 13.8
2003-12-09 08:46:17 51°18.509 2°50.928 88.1 0.7 200 13.8
2003-12-09 08:46:22 51°18.508 2°50.928 88.7 0.6 202 13.8
2003-12-09 08:46:26 51°18.507 2°50.927 89.4 0.7 199 13.7
2003-12-09 08:46:31 51°18.507 2°50.926 90 0.7 202 13.7
2003-12-09 08:46:36 51°18.506 2°50.926 90.4 0.8 201 13.6
2003-12-09 08:46:41 51°18.505 2°50.925 90.5 0.7 200 13.6
2003-12-09 08:46:45 51°18.504 2°50.925 90.4 0.7 199 13.8
2003-12-09 08:46:50 51°18.503 2°50.924 90 0.7 200 13.7
2003-12-09 08:46:57 51°18.502 2°50.924 89.4 0.7 198 13.8
2003-12-09 08:47:01 51°18.501 2°50.923 88.9 0.7 198 13.7
2003-12-09 08:47:05 51°18.501 2°50.923 88.1 0.7 202 13.7
2003-12-09 08:47:09 51°18.5 2°50.922 87.6 0.7 198 13.6
2003-12-09 08:47:17 51°18.498 2°50.921 87 0.6 203 13.6
2003-12-09 08:47:21 51°18.498 2°50.921 86.3 0.6 199 13.6
2003-12-09 08:47:25 51°18.497 2°50.921 85.6 0.6 196 13.6
2003-12-09 08:47:31 51°18.496 2°50.92 85 0.6 200 13.7
2003-12-09 08:47:37 51°18.495 2°50.92 84.1 0.6 200 13.7
2003-12-09 08:47:41 51°18.495 2°50.919 83.4 0.6 199 13.7
2003-12-09 08:47:46 51°18.494 2°50.919 82.7 0.6 197 13.6
2003-12-09 08:47:51 51°18.493 2°50.919 81.9 0.6 198 13.7
2003-12-09 08:47:56 51°18.492 2°50.918 81.1 0.6 196 13.6
2003-12-09 08:48:01 51°18.492 2°50.918 80.5 0.6 193 13.7
2003-12-09 08:48:06 51°18.491 2°50.918 79.8 0.6 197 13.7
2003-12-09 08:48:10 51°18.49 2°50.917 78.9 0.5 198 13.7
2003-12-09 08:48:17 51°18.489 2°50.917 78.2 0.5 198 13.6
2003-12-09 08:48:28 51°18.488 2°50.917 76.4 0.2 156 13.7
2003-12-09 08:48:32 51°18.488 2°50.918 75.4 0.5 126 13.7
2003-12-09 08:48:37 51°18.488 2°50.919 73.3 0.8 80 13.7
2003-12-09 08:48:42 51°18.489 2°50.922 70.2 1.1 78 13.6
2003-12-09 08:48:47 51°18.49 2°50.925 65 1.4 60 13.6
2003-12-09 08:48:53 51°18.492 2°50.928 61.5 1.7 55 13.7
2003-12-09 08:48:57 51°18.493 2°50.931 56.6 2 43 13.7
2003-12-09 08:49:02 51°18.496 2°50.934 51.7 2.6 38 13.6
2003-12-09 08:49:06 51°18.5 2°50.937 44.7 3.6 27 13.6
2003-12-09 08:49:12 51°18.506 2°50.941 38.5 4.2 19 13.7
2003-12-09 08:49:17 51°18.514 2°50.942 30.4 5.2 7 13.7
2003-12-09 08:49:22 51°18.522 2°50.941 21.4 5.8 359 13.6
2003-12-09 08:49:26 51°18.529 2°50.939 10.3 6.6 347 13.7
2003-12-09 08:49:32 51°18.54 2°50.932 2.7 7.1 339 13.7
2003-12-09 08:49:37 51°18.549 2°50.923 351.2 7.7 327 13.8
2003-12-09 08:49:42 51°18.558 2°50.91 341.8 8.1 320 13.7
2003-12-09 08:49:45 51°18.563 2°50.902 332.1 8.6 309 13.8
2003-12-09 08:49:53 51°18.573 2°50.874 324.4 9 302 13.8
2003-12-09 08:49:57 51°18.576 2°50.859 314.8 9.4 291 13.8
2003-12-09 08:50:02 51°18.579 2°50.838 305.1 9.6 284 13.8
2003-12-09 08:50:06 51°18.58 2°50.82 295.4 10 273 13.9
2003-12-09 08:50:13 51°18.579 2°50.788 285.7 10.2 268 14.1
2003-12-09 08:50:17 51°18.576 2°50.769 276.1 10.7 260 13.8
2003-12-09 08:50:22 51°18.573 2°50.745 269.9 11 257 14
2003-12-09 08:50:26 51°18.569 2°50.726 264.9 11.5 252 14
2003-12-09 08:50:33 51°18.56 2°50.692 259.8 11.9 248 14.1
2003-12-09 08:50:37 51°18.553 2°50.673 254.2 12.5 242 14.1
2003-12-09 08:50:41 51°18.545 2°50.654 248.4 12.7 238 14
2003-12-09 08:50:47 51°18.532 2°50.627 240.8 13.1 231 14
2003-12-09 08:50:52 51°18.519 2°50.606 236.2 13.2 230 13.9
2003-12-09 08:50:57 51°18.505 2°50.587 230 13.3 219 13.9
2003-12-09 08:51:02 51°18.489 2°50.571 223.1 13.4 215 13.9
2003-12-09 08:51:06 51°18.476 2°50.559 216.2 13.6 209 13.8
2003-12-09 08:51:13 51°18.452 2°50.541 210.6 13.7 206 13.9
2003-12-09 08:51:18 51°18.434 2°50.53 206.8 13.8 203 13.9
2003-12-09 08:51:22 51°18.419 2°50.521 203.9 13.8 201 13.9
2003-12-09 08:51:28 51°18.397 2°50.509 201.1 14.1 199 13.9
2003-12-09 08:51:33 51°18.378 2°50.499 199.5 14.3 198 13.8
2003-12-09 08:51:37 51°18.363 2°50.492 198.4 14.4 196 13.8
2003-12-09 08:51:41 51°18.347 2°50.485 197.3 14.6 197 13.8
2003-12-09 08:51:47 51°18.324 2°50.473 197.3 14.7 196 13.6
2003-12-09 08:51:52 51°18.304 2°50.463 197.3 14.7 197 13.7
2003-12-09 08:51:57 51°18.284 2°50.454 197.3 14.8 197 13.5
2003-12-09 08:52:02 51°18.264 2°50.444 197.4 14.9 197 13.6
2003-12-09 08:52:06 51°18.249 2°50.437 197.6 15 197 13.5
2003-12-09 08:52:13 51°18.221 2°50.423 197.9 15 197 13.4
2003-12-09 08:52:17 51°18.205 2°50.415 198.4 14.9 198 13.3
2003-12-09 08:52:21 51°18.189 2°50.407 198.8 15 197 13.3
2003-12-09 08:52:27 51°18.165 2°50.395 198.4 15.1 197 13.3
2003-12-09 08:52:32 51°18.145 2°50.385 198 15.1 197 13.3
2003-12-09 08:52:37 51°18.126 2°50.375 198.1 15 198 13.3
2003-12-09 08:52:42 51°18.106 2°50.366 198.4 15 198 13.1
2003-12-09 08:52:46 51°18.09 2°50.357 198.7 15.1 198 13.2
2003-12-09 08:52:53 51°18.062 2°50.344 199.1 15.1 198 13
2003-12-09 08:52:57 51°18.046 2°50.336 198.6 15.1 197 13.1
2003-12-09 08:53:03 51°18.022 2°50.324 197.9 15.2 197 12.9
2003-12-09 08:53:05 51°18.014 2°50.32 197.9 15.1 197 13
2003-12-09 08:53:12 51°17.986 2°50.306 197.9 15.1 197 12.8
2003-12-09 08:53:17 51°17.966 2°50.296 198.2 15.1 197 12.8
2003-12-09 08:53:21 51°17.95 2°50.288 198.8 15.1 198 12.7
2003-12-09 08:53:27 51°17.926 2°50.276 198.8 15.1 197 12.7
2003-12-09 08:53:30 51°17.914 2°50.27 198.8 15.1 198 12.7
2003-12-09 08:53:37 51°17.886 2°50.257 198.8 15.1 197 12.6
2003-12-09 08:53:42 51°17.866 2°50.247 198.8 15.2 198 12.6
2003-12-09 08:53:46 51°17.85 2°50.239 198.8 15.2 197 12.6
2003-12-09 08:53:52 51°17.826 2°50.226 199.2 15.1 198 12.6
2003-12-09 08:53:57 51°17.806 2°50.216 199.5 15 198 12.6
2003-12-09 08:54:01 51°17.79 2°50.208 199.2 15 198 12.5
2003-12-09 08:54:06 51°17.77 2°50.199 198.8 15.1 198 12.4
2003-12-09 08:54:13 51°17.742 2°50.185 198.8 15.2 197 12.5
2003-12-09 08:54:17 51°17.726 2°50.176 199.2 15.2 198 12.5
2003-12-09 08:54:22 51°17.706 2°50.166 199.5 15 197 12.3
2003-12-09 08:54:26 51°17.691 2°50.159 198.6 15 197 12.3
2003-12-09 08:54:33 51°17.663 2°50.146 198.1 15.1 196 12.2
2003-12-09 08:54:37 51°17.647 2°50.138 198 15.1 197 12.2
2003-12-09 08:54:41 51°17.631 2°50.13 198.8 15 197 12.2
2003-12-09 08:54:47 51°17.607 2°50.118 199.1 15 198 12.2
2003-12-09 08:54:52 51°17.587 2°50.108 199.2 15 197 12.1
2003-12-09 08:54:57 51°17.567 2°50.098 199.2 15.1 197 12
2003-12-09 08:55:02 51°17.547 2°50.088 199 15.1 197 12.1
2003-12-09 08:55:06 51°17.531 2°50.08 198.8 15 197 12
2003-12-09 08:55:13 51°17.504 2°50.067 198.4 15 196 11.8
2003-12-09 08:55:17 51°17.487 2°50.059 198.2 15.1 196 11.8
2003-12-09 08:55:21 51°17.472 2°50.051 198.2 15.1 196 11.8
2003-12-09 08:55:28 51°17.444 2°50.038 198.2 15.1 196 11.5
2003-12-09 08:55:32 51°17.428 2°50.031 198.2 15 196 11.3
2003-12-09 08:55:38 51°17.404 2°50.019 198.3 14.9 199 11.2
2003-12-09 08:55:41 51°17.393 2°50.012 200.3 14.9 200 11.2
2003-12-09 08:55:46 51°17.373 2°50 202.3 15 201 11
2003-12-09 08:55:50 51°17.357 2°49.99 204.6 15.1 203 11.2
2003-12-09 08:55:57 51°17.331 2°49.97 206.4 15 204 11.2
2003-12-09 08:56:01 51°17.316 2°49.959 207 14.9 205 10.2
2003-12-09 08:56:06 51°17.297 2°49.945 208 14.9 205 10.5
2003-12-09 08:56:12 51°17.274 2°49.928 208 14.9 205 10.2
2003-12-09 08:56:17 51°17.256 2°49.914 208.1 14.9 205 10.5
2003-12-09 08:56:22 51°17.237 2°49.9 208.3 15 205 10.5
2003-12-09 08:56:26 51°17.222 2°49.888 208.7 15 205 9.9
2003-12-09 08:56:33 51°17.196 2°49.869 208.7 14.9 205 10.3
2003-12-09 08:56:37 51°17.181 2°49.858 208 14.9 204 9.9
2003-12-09 08:56:41 51°17.166 2°49.847 207.6 14.9 204 9.8
2003-12-09 08:56:47 51°17.143 2°49.831 207.5 14.9 204 8.8
2003-12-09 08:56:52 51°17.124 2°49.818 207.3 14.8 204 9.5
2003-12-09 08:56:57 51°17.106 2°49.804 207.5 14.8 204 9.8
2003-12-09 08:57:02 51°17.087 2°49.79 207.7 14.8 204 9.2
2003-12-09 08:57:06 51°17.072 2°49.779 207.8 14.9 205 9.6
2003-12-09 08:57:13 51°17.046 2°49.76 207.9 15 204 9.4
2003-12-09 08:57:17 51°17.031 2°49.749 207.9 15 205 9.4
2003-12-09 08:57:21 51°17.016 2°49.738 208.3 14.9 204 9.1
2003-12-09 08:57:28 51°16.99 2°49.719 208.3 14.9 205 8.4
2003-12-09 08:57:32 51°16.975 2°49.708 208.3 14.7 204 9.5
2003-12-09 08:57:38 51°16.953 2°49.692 207.7 14.7 204 8.9
2003-12-09 08:57:41 51°16.941 2°49.683 208 14.8 205 9
2003-12-09 08:57:46 51°16.923 2°49.669 209.6 14.9 207 9.1
2003-12-09 08:57:50 51°16.908 2°49.656 211 14.9 207 8.9
2003-12-09 08:57:57 51°16.883 2°49.633 212.8 15 210 9.2
2003-12-09 08:58:01 51°16.869 2°49.62 214.4 14.9 211 8.8
2003-12-09 08:58:06 51°16.851 2°49.603 215.6 14.9 211 9
2003-12-09 08:58:13 51°16.827 2°49.579 215.7 14.9 211 10
2003-12-09 08:58:17 51°16.812 2°49.566 215.5 15.1 211 9
2003-12-09 08:58:22 51°16.794 2°49.549 214.9 15.2 210 10.4
2003-12-09 08:58:26 51°16.779 2°49.535 214.2 15.2 209 9.4
2003-12-09 08:58:33 51°16.753 2°49.512 213.6 15.3 209 10
2003-12-09 08:58:37 51°16.739 2°49.499 213.3 15.2 209 10.6
2003-12-09 08:58:42 51°16.72 2°49.483 213.2 15.2 209 11.3
2003-12-09 08:58:46 51°16.705 2°49.47 213 15.3 209 11.8
2003-12-09 08:58:53 51°16.679 2°49.446 212.9 15.4 209 11
2003-12-09 08:58:58 51°16.66 2°49.429 212.6 15.4 209 12.2
2003-12-09 08:59:02 51°16.646 2°49.414 213.5 15.4 211 13.2
2003-12-09 08:59:06 51°16.631 2°49.4 215.3 15.3 212 13.1
2003-12-09 08:59:13 51°16.607 2°49.374 216.5 15.3 213 13.1
2003-12-09 08:59:17 51°16.593 2°49.358 217.7 15.3 214 13.5
2003-12-09 08:59:22 51°16.575 2°49.339 218.6 15.3 215 14.1
2003-12-09 08:59:26 51°16.562 2°49.323 219.3 15.2 215 14.4
2003-12-09 08:59:33 51°16.538 2°49.296 219 15.1 215 14.8
2003-12-09 08:59:37 51°16.524 2°49.281 218.7 15.2 216 14.9
2003-12-09 08:59:42 51°16.507 2°49.26 219.9 15.2 217 14.8
2003-12-09 08:59:46 51°16.494 2°49.244 220.9 15.1 218 15
2003-12-09 08:59:51 51°16.478 2°49.224 221.7 15.1 218 15
2003-12-09 08:59:57 51°16.458 2°49.199 222.2 15 218 15.1
2003-12-09 09:00:01 51°16.445 2°49.183 222.2 15 218 15.1
2003-12-09 09:00:07 51°16.425 2°49.158 221.9 15 218 15
2003-12-09 09:00:12 51°16.409 2°49.138 221.7 15 218 14.9
2003-12-09 09:00:18 51°16.389 2°49.114 221.9 14.9 218 15
2003-12-09 09:00:22 51°16.376 2°49.097 222 15 218 14.9
2003-12-09 09:00:27 51°16.359 2°49.077 221.6 15 218 14.8
2003-12-09 09:00:33 51°16.34 2°49.053 221.9 15 218 14.8
2003-12-09 09:00:37 51°16.327 2°49.037 222 14.9 218 14.7
2003-12-09 09:00:42 51°16.31 2°49.017 221.6 14.9 217 14.7
2003-12-09 09:00:47 51°16.294 2°48.996 221 14.9 217 14.6
2003-12-09 09:00:53 51°16.274 2°48.972 220.9 15 217 14.4
2003-12-09 09:00:57 51°16.261 2°48.956 221.3 14.9 218 14.3
2003-12-09 09:01:02 51°16.245 2°48.936 221.5 14.9 217 14.3
2003-12-09 09:01:06 51°16.231 2°48.92 221.1 14.9 217 14.2
2003-12-09 09:01:13 51°16.208 2°48.892 221.1 14.9 217 14.1
2003-12-09 09:01:17 51°16.195 2°48.876 220.8 14.9 218 14.1
2003-12-09 09:01:22 51°16.179 2°48.856 221.1 14.9 218 14
2003-12-09 09:01:26 51°16.166 2°48.84 221.3 14.9 218 14
2003-12-09 09:01:33 51°16.143 2°48.812 221.3 14.9 218 13.9
2003-12-09 09:01:37 51°16.13 2°48.795 221.6 15 218 14
2003-12-09 09:01:41 51°16.116 2°48.779 221.5 15 217 13.8
2003-12-09 09:01:46 51°16.1 2°48.759 220.8 14.9 217 13.9
2003-12-09 09:01:53 51°16.077 2°48.731 220.8 14.9 218 13.8
2003-12-09 09:01:57 51°16.064 2°48.715 221 14.9 218 13.7
2003-12-09 09:02:02 51°16.048 2°48.695 221.5 14.9 218 13.7
2003-12-09 09:02:06 51°16.034 2°48.679 221.3 15 217 13.5
2003-12-09 09:02:12 51°16.015 2°48.654 220.8 15 218 13.4
2003-12-09 09:02:17 51°15.998 2°48.635 221 15 217 13.4
2003-12-09 09:02:21 51°15.985 2°48.618 221 14.9 218 13.4
2003-12-09 09:02:26 51°15.969 2°48.599 220.6 14.9 217 13.2
2003-12-09 09:02:30 51°15.955 2°48.583 220.1 14.9 217 13.1
2003-12-09 09:02:37 51°15.932 2°48.555 220.6 14.9 217 13
2003-12-09 09:02:41 51°15.919 2°48.539 220.8 14.9 217 12.9
2003-12-09 09:02:45 51°15.906 2°48.523 220.8 14.9 218 12.7
2003-12-09 09:02:53 51°15.88 2°48.491 221.4 14.9 218 12.6
2003-12-09 09:02:57 51°15.867 2°48.475 221.4 14.9 218 12.5
2003-12-09 09:03:02 51°15.85 2°48.456 221.2 15 217 12.3
2003-12-09 09:03:06 51°15.837 2°48.44 220.6 14.9 217 12.3
2003-12-09 09:03:12 51°15.817 2°48.416 220.5 14.8 217 12.2
2003-12-09 09:03:17 51°15.801 2°48.396 220.6 14.8 217 12
2003-12-09 09:03:21 51°15.788 2°48.38 220.6 14.8 217 11.9
2003-12-09 09:03:27 51°15.768 2°48.356 220.6 14.8 218 11.8
2003-12-09 09:03:33 51°15.748 2°48.332 220.6 14.9 218 11.7
2003-12-09 09:03:37 51°15.735 2°48.316 220.8 14.8 217 11.6
2003-12-09 09:03:42 51°15.719 2°48.296 220.7 14.8 217 11.5
2003-12-09 09:03:47 51°15.702 2°48.277 220.5 14.8 217 11.4
2003-12-09 09:03:52 51°15.686 2°48.257 220.6 14.8 217 11.3
2003-12-09 09:03:57 51°15.669 2°48.237 220.6 14.8 217 11.1
2003-12-09 09:04:02 51°15.653 2°48.217 220.8 14.8 218 11.1
2003-12-09 09:04:06 51°15.64 2°48.201 220.8 14.8 217 10.8
2003-12-09 09:04:12 51°15.62 2°48.177 220.7 14.9 217 10.9
2003-12-09 09:04:17 51°15.604 2°48.158 220.9 14.8 217 10.8
2003-12-09 09:04:21 51°15.591 2°48.142 220.9 14.6 217 10.7
2003-12-09 09:04:26 51°15.574 2°48.123 219.9 14.7 216 10.5